Regional Weather Roundup
Issued by NWS Raleigh/Durham, NC

Home | Current Version | Previous Version | Text Only | Print | Product List | Glossary On
Versions: 1 2 3 4 5 6 7 8 9 10 11 12 13 14 15 16 17 18 19 20 21 22 23 24 25 26 27 28 29 30 31 32 33 34 35 36 37 38 39 40 41 42 43 44 45 46 47 48 49 50
000
ASUS42 KRAH 102010
RWRRAH
NORTH CAROLINA WEATHER ROUNDUP
NATIONAL WEATHER SERVICE RALEIGH NC
300 PM EST WED FEB 10 2016

NOTE: "FAIR" INDICATES FEW OR NO CLOUDS BELOW 12,000 FEET WITH NO
SIGNIFICANT WEATHER AND/OR OBSTRUCTIONS TO VISIBILITY.

NCZ001-053-055-056-065-067-102100-
WESTERN NORTH CAROLINA

CITY           SKY/WX    TMP DP  RH WIND       PRES   REMARKS
ASHEVILLE      SUNNY     27   4  37 N13G22    29.90R WCI  16
JEFFERSON      CLOUDY    16   3  55 W23G37    29.77S HAZE    WCI  -2
MORGANTON      SUNNY     31   6  33 W12G23    29.97S WCI  22
HICKORY        SUNNY     32   4  30 NW15G28   29.91S WCI  22
RUTHERFORDTON  SUNNY     32   5  31 W16G28    29.96R WCI  22
MOUNT AIRY     CLOUDY    30   7  37 NW9G18    29.91R WCI  21
BOONE          LGT SNOW  15   6  67 W17G33    29.79F WCI  -1
$$

NCZ021-022-025-041-071-084-088-102100-
CENTRAL NORTH CAROLINA

CITY           SKY/WX    TMP DP  RH WIND       PRES   REMARKS
CHARLOTTE      MOSUNNY   38   9  30 W12G22    29.93F WCI  30
GREENSBORO     PTSUNNY   36   9  32 NW18G24   29.86R WCI  26
WINSTON-SALEM  MOSUNNY   33   6  32 W10G26    29.89R WCI  25
RALEIGH-DURHAM PTSUNNY   37  14  38 W10G22    29.87R WCI  30
FORT BRAGG     PTSUNNY   38  14  37 W14G22    29.88R WCI  30
FAYETTEVILLE   CLOUDY    39  15  37 W15       29.89S WCI  31
BURLINGTON     CLOUDY    35  10  35 W16       29.86S WCI  25
LAURINBURG     CLOUDY    38  13  35 W17G24    29.93R WCI  28
$$

NCZ011-015-027-028-043-044-047-080-103-102100-
NORTHEASTERN NORTH CAROLINA

CITY           SKY/WX    TMP DP  RH WIND       PRES   REMARKS
ROCKY MT-WILSO PTSUNNY   38  17  42 W12G22    29.86S WCI  30
GREENVILLE     PTSUNNY   43  19  39 W10G17    29.88S
WASHINGTON     MOSUNNY   41  18  39 W13G18    29.85S
ELIZABETH CITY MOSUNNY   41  20  43 SW16      29.82F
MANTEO         SUNNY     40  21  47 W13       29.83F WCI  32
CAPE HATTERAS  SUNNY     41  21  44 W9G18     29.85F
$$

NCZ078-087-090-091-093-098-101-102100-
SOUTHEASTERN NORTH CAROLINA

CITY           SKY/WX    TMP DP  RH WIND       PRES   REMARKS
LUMBERTON      CLOUDY    39  19  44 W12G25    29.92R WCI  32
GOLDSBORO      PTSUNNY   41  16  36 W17       29.85S
KINSTON        PTSUNNY   39  16  38 W9        29.88S WCI  33
KENANSVILLE    CLOUDY    42  16  35 W12G17    29.89S
NEW BERN       MOSUNNY   42  18  37 W9        29.87F
CHERRY POINT   MOSUNNY   44  19  36 W14       29.87S
BEAUFORT       SUNNY     41  22  46 SW15G22   29.86F
JACKSONVILLE   MOSUNNY   41  16  36 W13G23    29.87S
WILMINGTON     PTSUNNY   43  20  39 W21       29.89S
$$




USA.gov is the U.S. government's official web portal to all federal, state and local government web resources and services.